Winchester, VA

12:06 PM EDT on October 23, 2019 (GMT -0400)
Winchester Regional

Weather History for KOKV - September, 2019

Change the Weather History Date:

Tuesday, September 17, 2019

  Actual Average Record
Temperature  
Mean Temperature 68 °F -  
Max Temperature 77 °F 76 °F 87 °F (1998)
Min Temperature 59 °F 55 °F 38 °F (1986)
Cooling Degree Days 3    
Growing Degree Days 18 (Base 50)    
Moisture  
Dew Point 60 °F    
Average Humidity 74    
Maximum Humidity 88    
Minimum Humidity 54    
Precipitation  
Precipitation 0.00 in - - ()
Sea Level Pressure  
Sea Level Pressure 30.09 in    
Wind  
Wind Speed 3 mph ()    
Max Wind Speed 7 mph    
Max Gust Speed -    
Visibility 10.0 miles    
Events      
Averages and records for this station are not official NWS values.
T = Trace of Precipitation, MM = Missing Value Source: Averaged Metar Reports

Daily Weather History Graph

Daily Weather History Graph

Search for Another Location

Airport or City:

Astronomy

Sep. 17, 2019 Rise Set
Actual Time 6:55 AM EDT 7:18 PM EDT
Civil Twilight 6:28 AM EDT 7:44 PM EDT
Nautical Twilight 5:57 AM EDT 8:16 PM EDT
Astronomical Twilight 5:24 AM EDT 8:48 PM EDT
Moon 9:21 PM EDT (9/17) 9:56 AM EDT (9/17)
Length of Visible Light 13h 16m
Length of Day
12h 22m
Waning Gibbous, 89% of the Moon is Illuminated
Sep 17
Waning Gibbous
Sep 21
Last Quarter
Sep 28
New
Oct 5
First Quarter
Oct 13
Full

Hourly Weather History & Observations

Time (EDT) Temp. Dew Point Humidity Pressure Visibility Wind Dir Wind Speed Gust Speed Precip Events Conditions
12:15 AM 71.6 °F 60.8 °F 69% 30.03 in 10.0 mi Calm Calm - N/A   Mostly Cloudy
12:35 AM 71.6 °F 60.8 °F 69% 30.03 in 10.0 mi NNE 4.6 mph - N/A   Overcast
12:55 AM 71.6 °F 60.8 °F 69% 30.03 in 10.0 mi North 3.5 mph - N/A   Overcast
1:15 AM 69.8 °F 62.6 °F 78% 30.03 in 10.0 mi NNW 3.5 mph - N/A   Overcast
1:35 AM 69.8 °F 62.6 °F 78% 30.03 in 10.0 mi NNE 4.6 mph - N/A   Overcast
1:55 AM 69.8 °F 62.6 °F 78% 30.03 in 10.0 mi NNE 3.5 mph - N/A   Overcast
2:15 AM 69.8 °F 62.6 °F 78% 30.03 in 10.0 mi NNE 3.5 mph - N/A   Mostly Cloudy
2:35 AM 69.8 °F 62.6 °F 78% 30.03 in 10.0 mi Calm Calm - N/A   Overcast
2:55 AM 68.0 °F 62.6 °F 83% 30.03 in 10.0 mi Calm Calm - N/A   Mostly Cloudy
3:15 AM 68.0 °F 62.6 °F 83% 30.03 in 10.0 mi Calm Calm - N/A   Mostly Cloudy
3:35 AM 68.0 °F 62.6 °F 83% 30.03 in 10.0 mi Calm Calm - N/A   Overcast
3:55 AM 68.0 °F 62.6 °F 83% 30.03 in 10.0 mi North 3.5 mph - N/A   Overcast
4:15 AM 68.0 °F 62.6 °F 83% 30.03 in 10.0 mi Calm Calm - N/A   Scattered Clouds
4:35 AM 66.2 °F 60.8 °F 83% 30.03 in 10.0 mi Calm Calm - N/A   Mostly Cloudy
4:55 AM 66.2 °F 60.8 °F 83% 30.03 in 10.0 mi North 4.6 mph - N/A   Scattered Clouds
5:15 AM 64.4 °F 60.8 °F 88% 30.04 in 10.0 mi North 3.5 mph - N/A   Scattered Clouds
5:35 AM 64.4 °F 60.8 °F 88% 30.04 in 10.0 mi Calm Calm - N/A   Scattered Clouds
5:55 AM 64.4 °F 60.8 °F 88% 30.04 in 10.0 mi Calm Calm - N/A   Scattered Clouds
6:15 AM 64.4 °F 60.8 °F 88% 30.05 in 10.0 mi Calm Calm - N/A   Mostly Cloudy
6:35 AM 64.4 °F 60.8 °F 88% 30.06 in 10.0 mi North 3.5 mph - N/A   Overcast
6:55 AM 66.2 °F 60.8 °F 83% 30.07 in 10.0 mi North 3.5 mph - N/A   Overcast
7:15 AM 66.2 °F 60.8 °F 83% 30.07 in 10.0 mi North 3.5 mph - N/A   Overcast
7:35 AM 66.2 °F 60.8 °F 83% 30.08 in 10.0 mi North 4.6 mph - N/A   Overcast
7:55 AM 66.2 °F 60.8 °F 83% 30.09 in 10.0 mi Calm Calm - N/A   Overcast
8:15 AM 66.2 °F 60.8 °F 83% 30.09 in 10.0 mi NNE 3.5 mph - N/A   Overcast
8:35 AM 66.2 °F 60.8 °F 83% 30.10 in 10.0 mi NNE 4.6 mph - N/A   Mostly Cloudy
8:55 AM 68.0 °F 60.8 °F 78% 30.10 in 10.0 mi NNE 4.6 mph - N/A   Mostly Cloudy
9:15 AM 68.0 °F 60.8 °F 78% 30.11 in 10.0 mi North 4.6 mph - N/A   Overcast
9:35 AM 69.8 °F 60.8 °F 73% 30.12 in 10.0 mi NE 4.6 mph - N/A   Mostly Cloudy
9:55 AM 69.8 °F 59.0 °F 68% 30.13 in 10.0 mi ENE 6.9 mph - N/A   Overcast
10:15 AM 69.8 °F 59.0 °F 68% 30.13 in 10.0 mi NNE 4.6 mph - N/A   Overcast
10:35 AM 69.8 °F 59.0 °F 68% 30.14 in 10.0 mi NE 5.8 mph - N/A   Overcast
10:55 AM 69.8 °F 59.0 °F 68% 30.14 in 10.0 mi NNE 5.8 mph - N/A   Overcast
11:15 AM 69.8 °F 59.0 °F 68% 30.15 in 10.0 mi NE 5.8 mph - N/A   Overcast
11:35 AM 69.8 °F 59.0 °F 68% 30.15 in 10.0 mi NNE 4.6 mph - N/A   Overcast
11:55 AM 69.8 °F 59.0 °F 68% 30.15 in 10.0 mi NE 5.8 mph - N/A   Overcast
12:15 PM 69.8 °F 59.0 °F 68% 30.14 in 10.0 mi East 5.8 mph - N/A   Overcast
12:35 PM 71.6 °F 60.8 °F 69% 30.14 in 10.0 mi East 5.8 mph - N/A   Overcast
12:55 PM 73.4 °F 60.8 °F 65% 30.14 in 10.0 mi ENE 6.9 mph - N/A   Overcast
1:15 PM 71.6 °F 60.8 °F 69% 30.13 in 10.0 mi ENE 5.8 mph - N/A   Overcast
1:35 PM 73.4 °F 60.8 °F 65% 30.13 in 10.0 mi East 6.9 mph - N/A   Overcast
1:55 PM 73.4 °F 60.8 °F 65% 30.12 in 10.0 mi ENE 4.6 mph - N/A   Overcast
2:15 PM 73.4 °F 60.8 °F 65% 30.11 in 10.0 mi East 6.9 mph - N/A   Overcast
2:35 PM 73.4 °F 60.8 °F 65% 30.11 in 10.0 mi NNE 6.9 mph - N/A   Overcast
2:55 PM 73.4 °F 59.0 °F 61% 30.10 in 10.0 mi Calm Calm - N/A   Mostly Cloudy
3:15 PM 77.0 °F 59.0 °F 54% 30.09 in 10.0 mi East 4.6 mph - N/A   Mostly Cloudy
3:35 PM 73.4 °F 59.0 °F 61% 30.09 in 10.0 mi Calm Calm - N/A   Mostly Cloudy
3:55 PM 75.2 °F 59.0 °F 57% 30.09 in 10.0 mi Calm Calm - N/A   Mostly Cloudy
4:15 PM 73.4 °F 59.0 °F 61% 30.08 in 10.0 mi NNE 5.8 mph - N/A   Overcast
4:35 PM 73.4 °F 59.0 °F 61% 30.08 in 10.0 mi East 3.5 mph - N/A   Overcast
4:55 PM 73.4 °F 60.8 °F 65% 30.08 in 10.0 mi East 3.5 mph - N/A   Overcast
5:15 PM 73.4 °F 60.8 °F 65% 30.08 in 10.0 mi ESE 4.6 mph - N/A   Scattered Clouds
5:35 PM 75.2 °F 59.0 °F 57% 30.08 in 10.0 mi East 3.5 mph - N/A   Clear
5:55 PM 75.2 °F 59.0 °F 57% 30.08 in 10.0 mi ESE 5.8 mph - N/A   Clear
6:15 PM 75.2 °F 59.0 °F 57% 30.08 in 10.0 mi East 4.6 mph - N/A   Clear
6:35 PM 73.4 °F 59.0 °F 61% 30.08 in 10.0 mi SE 3.5 mph - N/A   Scattered Clouds
6:55 PM 71.6 °F 60.8 °F 69% 30.09 in 10.0 mi SE 3.5 mph - N/A   Scattered Clouds
7:35 PM 68.0 °F 59.0 °F 73% 30.09 in 10.0 mi Calm Calm - N/A   Mostly Cloudy
7:55 PM 66.2 °F 59.0 °F 78% 30.10 in 10.0 mi Calm Calm - N/A   Mostly Cloudy
8:15 PM 66.2 °F 59.0 °F 78% 30.10 in 10.0 mi Calm Calm - N/A   Mostly Cloudy
8:35 PM 64.4 °F 59.0 °F 83% 30.11 in 10.0 mi Calm Calm - N/A   Scattered Clouds
8:55 PM 62.6 °F 57.2 °F 82% 30.12 in 10.0 mi Calm Calm - N/A   Scattered Clouds
9:15 PM 62.6 °F 59.0 °F 88% 30.12 in 10.0 mi Calm Calm - N/A   Scattered Clouds
9:35 PM 62.6 °F 57.2 °F 82% 30.12 in 10.0 mi Calm Calm - N/A   Clear
9:55 PM 60.8 °F 57.2 °F 88% 30.12 in 10.0 mi Calm Calm - N/A   Clear
10:15 PM 59.0 °F 55.4 °F 88% 30.13 in 10.0 mi Calm Calm - N/A   Clear
10:35 PM 62.6 °F 55.4 °F 77% 30.13 in 10.0 mi North 3.5 mph - N/A   Clear
10:55 PM 62.6 °F 55.4 °F 77% 30.13 in 10.0 mi North 3.5 mph - N/A   Clear
11:15 PM 62.6 °F 55.4 °F 77% 30.13 in 10.0 mi North 3.5 mph - N/A   Clear
11:35 PM 62.6 °F 53.6 °F 72% 30.14 in 10.0 mi Calm Calm - N/A   Clear
11:55 PM 60.8 °F 53.6 °F 77% 30.13 in 10.0 mi North 3.5 mph - N/A   Clear